Find Starlink 4669

NORAD ID: 53748 Int'l Des: 2022-107 Owner: SPXS Country: US Constellation: starlink decayed
LEOCIRCULAR
Vis

Historical Track — Feb 7, 2025

3D地球を読み込み中...

Starlink 4669について

説明を読み込み中...

高度履歴

Loading altitude history...

軌道要素

1 53748U 22107BA 25037.80554308 .08777777 12411-4 59394-3 0 9995
2 53748 53.1985 208.4296 0004790 305.4446 192.9351 16.40587481134504
Epoch: Feb 6, 2025 • Age: 10863 hours

現在のステータス

Position data unavailable
打ち上げ日 Sep 5, 2022
運用期間 3.6 years
落下予定日 Feb 7, 2025
タイプ internet

技術仕様

分類 Payload
質量 305.00 kg
乾燥質量 290.00 kg
総質量 305.00 kg
長さ 0.20 m
直径 2.80 m
スパン 9.00 m
形状 Box + pan
製造者 SPXS
バスタイプ Starlink
フェーズステータス Unknown Transfer Status
所有者/国 SPXS/US

Most Searched